Home > Weather > Demmin > Past weeks

Flag for Germany Past Weather in Demmin, Mecklenburg-Western Pomerania, Germany — Yesterday and Last 2 Weeks

Now
55 °F

Low clouds.


Feels Like: 55 °F
Forecast: 50 / 69 °F
Wind: 5 mph from East

Location: Laage

Current Time: May 26, 2016 at 8:54:39 AM

Latest Report: May 26, 2016 at 8:20 AM


Visibility: N/A

Pressure: 30.01 "Hg

Humidity: 94%

Dew Point: 54 °F

Location of DemminLocation

Past Weather in Demmin — Graph

°F

Demmin Temperature Yesterday

Maximum temperature yesterday: 66 °F (at 3:20 PM)
Minimum temperature yesterday: 55 °F (at 4:20 AM)
Average temperature yesterday: 60 °F

High & Low Weather Summary for the Past Weeks

 TemperatureHumidityPressure
High82 °F (May 22, 3:20 PM)100% (May 15, 5:20 AM)30.04 "Hg (May 15, 5:20 AM)
Low39 °F (May 18, 5:20 AM)30% (May 12, 5:20 PM)29.56 "Hg (May 13, 8:20 PM)
Average57 °F73%29.84 "Hg
* Reported May 11 7:20 AM — May 26 7:20 AM, Demmin, Weather by CustomWeather, © 2016

Note: Actual official high and low records may vary slightly from our data, if they occured in-between our weather recording intervals... More about our weather records

Advertising

Demmin Weather History for the Previous 24 Hours

Scroll right to see more
 ConditionsComfort  
Time TempWeatherWind HumidityBarometerVisibility
7:20 AM
Thu, May 26
54 °FLow clouds.2 mph100%29.98 "Hg4 mi
6:20 AM52 °FFog.6 mph100%29.98 "Hg3 mi
6:01 AM52 °FFog.5 mph100%29.98 "Hg3 mi
5:20 AM52 °FFog.6 mph100%29.98 "Hg1 mi
4:48 AM52 °FFog.5 mph100%29.98 "Hg1 mi
4:20 AM52 °FFog.7 mph100%29.98 "Hg0 mi
3:20 AM54 °FFog.7 mph100%29.98 "Hg0 mi
2:20 AM54 °FFog.3 mph100%29.98 "Hg0 mi
1:20 AM54 °FFog.2 mph100%29.98 "Hg0 mi
12:20 AM54 °FFog.No wind100%29.98 "Hg0 mi
11:20 PM
Wed, May 25
55 °FPassing clouds.2 mph94%29.95 "Hg4 mi
10:20 PM57 °FPassing clouds.5 mph94%29.95 "HgN/A
9:20 PM59 °FPassing clouds.6 mph88%29.95 "HgN/A
8:20 PM61 °FPassing clouds.8 mph83%29.95 "Hg6 mi
7:20 PM64 °FPassing clouds.9 mph78%29.92 "Hg5 mi
6:20 PM66 °FPassing clouds.9 mph73%29.92 "HgN/A
5:20 PM66 °FScattered clouds.8 mph73%29.92 "HgN/A
4:20 PM64 °FPartly sunny.9 mph78%29.92 "HgN/A
3:20 PM66 °FPartly sunny.8 mph73%29.92 "HgN/A
2:51 PM64 °FBroken clouds.9 mph78%29.92 "HgN/A
2:20 PM64 °FBroken clouds.9 mph78%29.92 "HgN/A
1:20 PM63 °FBroken clouds.12 mph83%29.92 "Hg4 mi
12:20 PM61 °FBroken clouds.12 mph88%29.92 "Hg4 mi
11:20 AM61 °FBroken clouds.9 mph88%29.92 "Hg4 mi
10:46 AM59 °FPartly sunny.9 mph88%29.92 "Hg4 mi
10:20 AM59 °FFog.10 mph94%29.92 "Hg2 mi
9:20 AM57 °FDrizzle. Fog.9 mph94%29.92 "Hg1 mi
8:20 AM55 °FDrizzle. Fog.9 mph100%29.92 "Hg1 mi
Weather by CustomWeather, © 2016

See weather overviewHow to use our weather pages